Location: Treviso
(45.6669°N, 12.2430°E)
Time: 00:38:51
(UTC+02:00)

ISS - Pass Details

Date: 27 May 2017
Orbit: 402 x 408 km, 51.6° (Epoch: 30 May)

Event Time Altitude Azimuth Distance (km) Brightness Sun altitude
Rises 02:33:45 0° 298° (WNW) 2,333 0.1 -20.3°
Reaches altitude 10° 02:35:51 10° 301° (WNW) 1,469 -0.9 -20.1°
Maximum altitude 02:39:08 73° 26° (NNE) 427 -3.7 -19.9°
Drops below altitude 10° 02:42:24 10° 112° (ESE) 1,458 -1.0 -19.7°
Sets 02:44:28 0° 114° (ESE) 2,314 0.0 -19.6°
